Time[GMT],gps_lon[degrees_west](-3m),gps_lat[degrees_north](-3m)
2002-07-24 21:07,-68.109786987,44.11
2002-07-24 22:07,-68.109657288,44.11
2002-07-24 23:07,-68.109657288,44.11
2002-07-25 00:07,,
2002-07-25 01:07,-68.109573364,44.11
2002-07-25 02:07,-68.109466553,44.11
2002-07-25 03:07,-68.109451294,44.11
2002-07-25 04:07,-68.109519958,44.11
2002-07-25 05:07,-68.109580994,44.11
2002-07-25 06:07,-68.109626770,44.11
2002-07-25 07:07,-68.109626770,44.11
2002-07-25 08:07,-68.109649658,44.11
2002-07-25 09:07,-68.109619141,44.11
2002-07-25 10:07,-68.109596252,44.11
2002-07-25 11:07,-68.109573364,44.11
2002-07-25 12:07,-68.109626770,44.11
2002-07-25 13:07,-68.109626770,44.11
2002-07-25 14:07,-68.109550476,44.11
2002-07-25 15:07,-68.109596252,44.11
2002-07-25 16:07,-68.109596252,44.11
2002-07-25 17:07,-68.109550476,44.11
2002-07-25 18:07,-68.109596252,44.11
2002-07-25 19:07,-68.109680176,44.11
2002-07-25 20:07,-68.109649658,44.11
2002-07-25 21:07,-68.109619141,44.11
2002-07-25 22:07,-68.109596252,44.11
2002-07-25 23:07,-68.109580994,44.11
2002-07-26 00:07,-68.109580994,44.11
2002-07-26 01:07,-68.109550476,44.11
2002-07-26 02:07,-68.109573364,44.11
2002-07-26 03:07,-68.109481812,44.11
2002-07-26 04:07,-68.109573364,44.11
2002-07-26 05:07,-68.109596252,44.11
2002-07-26 06:07,-68.109626770,44.11
2002-07-26 07:07,-68.109817505,44.11
2002-07-26 08:07,-68.109733582,44.11
2002-07-26 09:07,-68.109748840,44.11
2002-07-26 10:07,-68.109718323,44.11
2002-07-26 11:07,-68.109733582,44.11
2002-07-26 12:07,-68.109657288,44.11
2002-07-26 13:07,-68.109703064,44.11
2002-07-26 14:07,-68.109718323,44.11
2002-07-26 15:07,-68.109580994,44.11
2002-07-26 16:07,-68.109596252,44.11
2002-07-26 17:07,-68.109580994,44.11
2002-07-26 18:07,-68.109619141,44.11
2002-07-26 19:07,-68.109703064,44.11
2002-07-26 20:07,-68.109649658,44.11
2002-07-26 21:07,-68.109680176,44.11
2002-07-26 22:07,-68.109703064,44.11
2002-07-26 23:07,-68.109626770,44.11
2002-07-27 00:07,-68.109718323,44.11
2002-07-27 01:07,-68.109626770,44.11
2002-07-27 02:07,-68.109626770,44.11
2002-07-27 03:07,-68.109619141,44.11
2002-07-27 04:07,-68.109649658,44.11
2002-07-27 05:07,-68.109626770,44.11
2002-07-27 06:07,-68.109680176,44.11
2002-07-27 07:07,-68.109718323,44.11
2002-07-27 08:07,-68.109733582,44.11
2002-07-27 09:07,-68.109680176,44.11
2002-07-27 10:07,-68.109786987,44.11
2002-07-27 11:07,-68.109756470,44.11
2002-07-27 12:07,-68.109718323,44.11
2002-07-27 13:07,-68.109619141,44.11
2002-07-27 14:07,-68.109573364,44.11
2002-07-27 15:07,-68.109519958,44.11
2002-07-27 16:07,-68.109542847,44.11
2002-07-27 17:07,-68.109466553,44.11
2002-07-27 18:07,-68.109542847,44.11
2002-07-27 19:07,-68.109550476,44.11
2002-07-27 20:07,-68.109519958,44.11
2002-07-27 21:07,-68.109519958,44.11
2002-07-27 22:07,-68.109481812,44.11
2002-07-27 23:07,-68.109497070,44.11
2002-07-28 00:07,-68.109519958,44.11
2002-07-28 01:07,-68.109519958,44.11
2002-07-28 02:07,-68.109451294,44.11
2002-07-28 03:07,-68.109367371,44.11
2002-07-28 04:07,-68.109413147,44.11
2002-07-28 05:07,-68.109451294,44.11
2002-07-28 06:07,-68.109519958,44.11
2002-07-28 07:07,-68.109580994,44.11
2002-07-28 08:07,-68.109649658,44.11
2002-07-28 09:07,-68.109657288,44.11
2002-07-28 10:07,-68.109649658,44.11
2002-07-28 11:07,-68.109680176,44.11
2002-07-28 12:07,-68.109619141,44.11
2002-07-28 13:07,-68.109580994,44.11
2002-07-28 14:07,-68.109580994,44.11
2002-07-28 15:07,-68.109443665,44.11
2002-07-28 16:07,-68.109519958,44.11
2002-07-28 17:07,-68.109519958,44.11
2002-07-28 18:07,-68.109542847,44.11
2002-07-28 19:07,-68.109497070,44.11
2002-07-28 20:07,-68.109649658,44.11
2002-07-28 21:07,-68.109580994,44.11
2002-07-28 22:07,-68.109580994,44.11
2002-07-28 23:07,-68.109626770,44.11
2002-07-29 00:07,-68.109649658,44.11
2002-07-29 01:07,-68.109680176,44.11
2002-07-29 02:07,-68.109657288,44.11
2002-07-29 03:07,-68.109619141,44.11
2002-07-29 04:07,-68.109580994,44.11
2002-07-29 05:07,-68.109519958,44.11
2002-07-29 06:07,-68.109580994,44.11
2002-07-29 07:07,-68.109649658,44.11
2002-07-29 08:07,-68.109703064,44.11
2002-07-29 09:07,-68.109657288,44.11
2002-07-29 10:07,-68.109786987,44.11
2002-07-29 11:07,-68.109718323,44.11
2002-07-29 12:07,-68.109703064,44.11
2002-07-29 13:07,-68.109680176,44.11
2002-07-29 14:07,-68.109596252,44.11
2002-07-29 15:07,-68.109542847,44.11
2002-07-29 16:07,-68.109306335,44.11
2002-07-29 17:07,-68.109268188,44.11
2002-07-29 18:07,-68.109413147,44.11
2002-07-29 19:07,-68.109542847,44.11
2002-07-29 20:07,-68.109657288,44.11
2002-07-29 21:07,-68.109703064,44.11
2002-07-29 22:07,-68.109733582,44.11
2002-07-29 23:07,-68.109748840,44.11
2002-07-30 00:07,-68.109703064,44.11
2002-07-30 01:07,-68.109657288,44.11
2002-07-30 02:07,-68.109626770,44.11
2002-07-30 03:07,-68.109619141,44.11
2002-07-30 04:07,-68.109619141,44.11
2002-07-30 05:07,-68.109596252,44.11
2002-07-30 06:07,-68.109703064,44.11
2002-07-30 07:07,-68.109680176,44.11
2002-07-30 08:07,-68.109703064,44.11
2002-07-30 09:07,-68.109718323,44.11
2002-07-30 10:07,-68.109748840,44.11
2002-07-30 11:07,-68.109733582,44.11
2002-07-30 12:07,-68.109703064,44.11
2002-07-30 13:07,-68.109756470,44.11
2002-07-30 14:07,-68.109619141,44.11
2002-07-30 15:07,-68.109596252,44.11
2002-07-30 16:07,-68.109542847,44.11
2002-07-30 17:07,-68.109550476,44.11
2002-07-30 18:07,-68.109573364,44.11
2002-07-30 19:07,-68.109626770,44.11
2002-07-30 20:07,-68.109649658,44.11
2002-07-30 21:07,-68.109626770,44.11
2002-07-30 22:07,-68.109718323,44.11
2002-07-30 23:07,-68.109680176,44.11
2002-07-31 00:07,-68.109619141,44.11
2002-07-31 01:07,-68.109626770,44.11
2002-07-31 02:07,-68.109626770,44.11
2002-07-31 03:07,-68.109626770,44.11
2002-07-31 04:07,-68.109573364,44.11
2002-07-31 05:07,-68.109542847,44.11
2002-07-31 06:07,-68.109550476,44.11
2002-07-31 07:07,-68.109580994,44.11
2002-07-31 08:07,-68.109580994,44.11
2002-07-31 09:07,-68.109626770,44.11
2002-07-31 10:07,-68.109703064,44.11
2002-07-31 11:07,-68.109786987,44.11
2002-07-31 12:07,-68.109748840,44.11
2002-07-31 13:07,-68.109733582,44.11
2002-07-31 14:07,-68.109718323,44.11
2002-07-31 15:07,-68.109718323,44.11
2002-07-31 16:07,-68.109580994,44.11
2002-07-31 17:07,-68.109550476,44.11
2002-07-31 18:07,-68.109497070,44.11
2002-07-31 19:07,-68.109466553,44.11
2002-07-31 20:07,-68.109443665,44.11
2002-07-31 21:07,-68.109497070,44.11
2002-07-31 22:07,-68.109580994,44.11
2002-07-31 23:07,-68.109619141,44.11
2002-08-01 00:07,-68.109733582,44.11
2002-08-01 01:07,-68.109786987,44.11
2002-08-01 02:07,-68.109756470,44.11
2002-08-01 03:07,-68.109703064,44.11
2002-08-01 04:07,-68.109626770,44.11
2002-08-01 05:07,-68.109619141,44.11
2002-08-01 06:07,-68.109649658,44.11
2002-08-01 07:07,-68.109619141,44.11
2002-08-01 08:07,-68.109649658,44.11
2002-08-01 09:07,-68.109649658,44.11
2002-08-01 10:07,-68.109657288,44.11
2002-08-01 11:07,-68.109626770,44.11
2002-08-01 12:07,-68.109657288,44.11
2002-08-01 13:07,-68.109718323,44.11
2002-08-01 14:07,-68.109680176,44.11
2002-08-01 15:07,-68.109703064,44.11
2002-08-01 16:07,-68.109619141,44.11
2002-08-01 17:07,-68.109619141,44.11
2002-08-01 18:07,-68.109626770,44.11
2002-08-01 19:07,-68.109619141,44.11
2002-08-01 20:07,-68.109626770,44.11
2002-08-01 21:07,-68.109657288,44.11
2002-08-01 22:07,-68.109718323,44.11
2002-08-01 23:07,-68.109703064,44.11
2002-08-02 00:07,-68.109703064,44.11
2002-08-02 01:07,-68.109680176,44.11
2002-08-02 02:07,-68.109573364,44.11
2002-08-02 03:07,-68.109550476,44.11
2002-08-02 04:07,-68.109580994,44.11
2002-08-02 05:07,-68.109596252,44.11
2002-08-02 06:07,-68.109580994,44.11
2002-08-02 07:07,-68.109580994,44.11
2002-08-02 08:07,-68.109580994,44.11
2002-08-02 09:07,-68.109573364,44.11
2002-08-02 10:07,-68.109649658,44.11
2002-08-02 11:07,-68.109580994,44.11
2002-08-02 12:07,-68.109596252,44.11
2002-08-02 13:07,-68.109657288,44.11
2002-08-02 14:07,-68.109649658,44.11
2002-08-02 15:07,-68.109619141,44.11
2002-08-02 16:07,-68.109580994,44.11
2002-08-02 17:07,-68.109497070,44.11
2002-08-02 18:07,-68.109367371,44.11
2002-08-02 19:07,-68.109352112,44.11
2002-08-02 20:07,-68.109283447,44.11
2002-08-02 21:07,-68.109283447,44.11
2002-08-02 22:07,-68.109298706,44.11
2002-08-02 23:07,-68.109352112,44.11
2002-08-03 00:07,-68.109306335,44.11
2002-08-03 01:07,-68.109397888,44.11
2002-08-03 02:07,-68.109382629,44.11
2002-08-03 03:07,-68.109413147,44.11
2002-08-03 04:07,-68.109397888,44.11
2002-08-03 05:07,-68.109443665,44.11
2002-08-03 06:07,-68.109367371,44.11
2002-08-03 07:07,-68.109306335,44.11
2002-08-03 08:07,-68.109352112,44.11
2002-08-03 09:07,-68.109306335,44.11
2002-08-03 10:07,-68.109397888,44.11
2002-08-03 11:07,-68.109466553,44.11
2002-08-03 12:07,-68.109382629,44.11
2002-08-03 13:07,-68.109596252,44.11
2002-08-03 14:07,-68.109596252,44.11
2002-08-03 15:07,-68.109550476,44.11
2002-08-03 16:07,-68.109626770,44.11
2002-08-03 17:07,-68.109703064,44.11
2002-08-03 18:07,-68.109657288,44.11
2002-08-03 19:07,-68.109626770,44.11
2002-08-03 20:07,-68.109466553,44.11
2002-08-03 21:07,-68.109519958,44.11
2002-08-03 22:07,-68.109542847,44.11
2002-08-03 23:07,-68.109573364,44.11
2002-08-04 00:07,-68.109573364,44.11
2002-08-04 01:07,-68.109596252,44.11
2002-08-04 02:07,-68.109657288,44.11
2002-08-04 03:07,-68.109619141,44.11
2002-08-04 04:07,-68.109550476,44.11
2002-08-04 05:07,-68.109451294,44.11
2002-08-04 06:07,-68.109519958,44.11
2002-08-04 07:07,,
2002-08-04 08:07,-68.109466553,44.11
2002-08-04 09:07,-68.109497070,44.11
2002-08-04 10:07,-68.109466553,44.11
2002-08-04 11:07,-68.109542847,44.11
2002-08-04 12:07,-68.109519958,44.11
2002-08-04 13:07,-68.109580994,44.11
2002-08-04 14:07,-68.109626770,44.11
2002-08-04 15:07,-68.109580994,44.11
2002-08-04 16:07,-68.109626770,44.11
2002-08-04 17:07,-68.109649658,44.11
2002-08-04 18:07,-68.109596252,44.11
2002-08-04 19:07,-68.109550476,44.11
2002-08-04 20:07,-68.109451294,44.11
2002-08-04 21:07,-68.109413147,44.11
2002-08-04 22:07,-68.109466553,44.11
2002-08-04 23:07,-68.109481812,44.11
2002-08-05 00:07,-68.109466553,44.11
2002-08-05 01:07,-68.109619141,44.11
2002-08-05 02:07,-68.109542847,44.11
2002-08-05 03:07,-68.109580994,44.11
2002-08-05 04:07,-68.109542847,44.11
2002-08-05 05:07,-68.109550476,44.11
2002-08-05 06:07,-68.109466553,44.11
2002-08-05 07:07,-68.109497070,44.11
2002-08-05 08:07,-68.109352112,44.11
2002-08-05 09:07,-68.109367371,44.11
2002-08-05 10:07,-68.109306335,44.11
2002-08-05 11:07,-68.109268188,44.11
2002-08-05 12:07,-68.109367371,44.11
2002-08-05 13:07,-68.109466553,44.11
2002-08-05 14:07,-68.109443665,44.11
2002-08-05 15:07,-68.109542847,44.11
2002-08-05 16:07,-68.109573364,44.11
2002-08-05 17:07,-68.109542847,44.11
2002-08-05 18:07,-68.109619141,44.11
2002-08-05 19:07,-68.109542847,44.11
2002-08-05 20:07,-68.109542847,44.11
2002-08-05 21:07,-68.109367371,44.11
2002-08-05 22:07,-68.109397888,44.11
2002-08-05 23:07,-68.109443665,44.11
2002-08-06 00:07,-68.109519958,44.11
2002-08-06 01:07,-68.109550476,44.11
2002-08-06 02:07,-68.109649658,44.11
2002-08-06 03:07,-68.109718323,44.11
2002-08-06 04:07,-68.109657288,44.11
2002-08-06 05:07,-68.109703064,44.11
2002-08-06 06:07,-68.109703064,44.11
2002-08-06 07:07,,
2002-08-06 08:07,-68.109580994,44.11
2002-08-06 09:07,-68.109596252,44.11
2002-08-06 10:07,-68.109619141,44.11
2002-08-06 11:07,-68.109596252,44.11
2002-08-06 12:07,-68.109573364,44.11
2002-08-06 13:07,-68.109580994,44.11
2002-08-06 14:07,-68.109649658,44.11
2002-08-06 15:07,-68.109657288,44.11
2002-08-06 16:07,-68.109680176,44.11
2002-08-06 17:07,-68.109733582,44.11
2002-08-06 18:07,-68.109748840,44.11
2002-08-06 19:07,-68.109649658,44.11
2002-08-06 20:07,-68.109756470,44.11
2002-08-06 21:07,-68.109718323,44.11
2002-08-06 22:07,-68.109619141,44.11
2002-08-06 23:07,-68.109451294,44.11
2002-08-07 00:07,-68.109283447,44.11
2002-08-07 01:07,-68.109306335,44.11
2002-08-07 02:07,-68.109397888,44.11
2002-08-07 03:07,-68.109573364,44.11
2002-08-07 04:07,-68.109596252,44.11
2002-08-07 05:07,-68.109626770,44.11
2002-08-07 06:07,-68.109649658,44.11
2002-08-07 07:07,-68.109550476,44.11
2002-08-07 08:07,-68.109542847,44.11
2002-08-07 09:07,-68.109596252,44.11
2002-08-07 10:07,-68.109550476,44.11
2002-08-07 11:07,-68.109443665,44.11
2002-08-07 12:07,-68.109443665,44.11
2002-08-07 13:07,-68.109519958,44.11
2002-08-07 14:07,-68.109573364,44.11
2002-08-07 15:07,-68.109626770,44.11
2002-08-07 16:07,-68.109649658,44.11
2002-08-07 17:07,-68.109657288,44.11
2002-08-07 18:07,-68.109649658,44.11
2002-08-07 19:07,-68.109619141,44.11
2002-08-07 20:07,-68.109519958,44.11
2002-08-07 21:07,-68.109481812,44.11
2002-08-07 22:07,-68.109367371,44.11
2002-08-07 23:07,-68.109397888,44.11
2002-08-08 00:07,-68.109397888,44.11
2002-08-08 01:07,-68.109306335,44.11
2002-08-08 02:07,-68.109397888,44.11
2002-08-08 03:07,-68.109542847,44.11
2002-08-08 04:07,-68.109657288,44.11
2002-08-08 05:07,-68.109649658,44.11
2002-08-08 06:07,-68.109657288,44.11
2002-08-08 07:07,-68.109550476,44.11
2002-08-08 08:07,-68.109626770,44.11
2002-08-08 09:07,-68.109657288,44.11
2002-08-08 10:07,-68.109680176,44.11
2002-08-08 11:07,-68.109626770,44.11
2002-08-08 12:07,-68.109550476,44.11
2002-08-08 13:07,-68.109542847,44.11
2002-08-08 14:07,-68.109451294,44.11
2002-08-08 15:07,-68.109550476,44.11
2002-08-08 16:07,-68.109542847,44.11
2002-08-08 17:07,-68.109542847,44.11
2002-08-08 18:07,-68.109451294,44.11
2002-08-08 19:07,-68.109573364,44.11
2002-08-08 20:07,-68.109542847,44.11
2002-08-08 21:07,-68.109542847,44.11
2002-08-08 22:07,-68.109451294,44.11
2002-08-08 23:07,-68.109542847,44.11
2002-08-09 00:07,-68.109443665,44.11
2002-08-09 01:07,-68.109352112,44.11
2002-08-09 02:07,-68.109443665,44.11
2002-08-09 03:07,-68.109542847,44.11
2002-08-09 04:07,-68.109626770,44.11
2002-08-09 05:07,-68.109649658,44.11
2002-08-09 06:07,-68.109657288,44.11
2002-08-09 07:07,-68.109703064,44.11
2002-08-09 08:07,-68.109680176,44.11
2002-08-09 09:07,-68.109718323,44.11
2002-08-09 10:07,-68.109680176,44.11
2002-08-09 11:07,-68.109649658,44.11
2002-08-09 12:07,-68.109680176,44.11
2002-08-09 13:07,-68.109573364,44.11
2002-08-09 14:07,-68.109596252,44.11
2002-08-09 15:07,-68.109619141,44.11
2002-08-09 16:07,-68.109657288,44.11
2002-08-09 17:07,-68.109550476,44.11
2002-08-09 18:07,-68.109550476,44.11
2002-08-09 19:07,-68.109718323,44.11
2002-08-09 20:07,-68.109626770,44.11
2002-08-09 21:07,-68.109626770,44.11
2002-08-09 22:07,-68.109649658,44.11
2002-08-09 23:07,-68.109542847,44.11
2002-08-10 00:07,-68.109443665,44.11
2002-08-10 01:07,-68.109336853,44.11
2002-08-10 02:07,-68.109413147,44.11
2002-08-10 03:07,-68.109443665,44.11
2002-08-10 04:07,-68.109550476,44.11
2002-08-10 05:07,-68.109596252,44.11
2002-08-10 06:07,-68.109802246,44.11
2002-08-10 07:07,-68.109680176,44.11
2002-08-10 08:07,-68.109703064,44.11
2002-08-10 09:07,-68.109703064,44.11
2002-08-10 10:07,-68.109703064,44.11
2002-08-10 11:07,-68.109596252,44.11
2002-08-10 12:07,-68.109680176,44.11
2002-08-10 13:07,-68.109580994,44.11
2002-08-10 14:07,-68.109542847,44.11
2002-08-10 15:07,-68.109596252,44.11
2002-08-10 16:07,-68.109596252,44.11
2002-08-10 17:07,-68.109626770,44.11
2002-08-10 18:07,-68.109596252,44.11
2002-08-10 19:07,-68.109619141,44.11
2002-08-10 20:07,-68.109657288,44.11
2002-08-10 21:07,-68.109718323,44.11
2002-08-10 22:07,-68.109703064,44.11
2002-08-10 23:07,-68.109657288,44.11
2002-08-11 00:07,-68.109649658,44.11
2002-08-11 01:07,-68.109703064,44.11
2002-08-11 02:07,-68.109580994,44.11
2002-08-11 03:07,-68.109573364,44.11
2002-08-11 04:07,-68.109626770,44.11
2002-08-11 05:07,-68.109657288,44.11
2002-08-11 06:07,-68.109703064,44.11
2002-08-11 07:07,-68.109786987,44.11
2002-08-11 08:07,-68.109733582,44.11
2002-08-11 09:07,-68.109817505,44.11
2002-08-11 10:07,-68.109756470,44.11
2002-08-11 11:07,-68.109756470,44.11
2002-08-11 12:07,-68.109703064,44.11
2002-08-11 13:07,-68.109649658,44.11
2002-08-11 14:07,-68.109542847,44.11
2002-08-11 15:07,-68.109497070,44.11
2002-08-11 16:07,-68.109497070,44.11
2002-08-11 17:07,-68.109519958,44.11
2002-08-11 18:07,-68.109649658,44.11
2002-08-11 19:07,-68.109550476,44.11
2002-08-11 20:07,-68.109649658,44.11
2002-08-11 21:07,-68.109626770,44.11
2002-08-11 22:07,-68.109680176,44.11
2002-08-11 23:07,-68.109619141,44.11
2002-08-12 00:07,-68.109519958,44.11
2002-08-12 01:07,-68.109580994,44.11
2002-08-12 02:07,-68.109519958,44.11
2002-08-12 03:07,-68.109550476,44.11
2002-08-12 04:07,-68.109626770,44.11
2002-08-12 05:07,-68.109619141,44.11
2002-08-12 06:07,-68.109703064,44.11
2002-08-12 07:07,-68.109748840,44.11
2002-08-12 08:07,-68.109733582,44.11
2002-08-12 09:07,-68.109718323,44.11
2002-08-12 10:07,-68.109748840,44.11
2002-08-12 11:07,-68.109649658,44.11
2002-08-12 12:07,-68.109626770,44.11
2002-08-12 13:07,-68.109596252,44.11
2002-08-12 14:07,-68.109580994,44.11
2002-08-12 15:07,-68.109481812,44.11
2002-08-12 16:07,-68.109451294,44.11
2002-08-12 17:07,-68.109519958,44.11
2002-08-12 18:07,-68.109619141,44.11
2002-08-12 19:07,-68.109680176,44.11
2002-08-12 20:07,-68.109680176,44.11
2002-08-12 21:07,-68.109649658,44.11
2002-08-12 22:07,-68.109596252,44.11
2002-08-12 23:07,-68.109680176,44.11
2002-08-13 00:07,-68.109649658,44.11
2002-08-13 01:07,-68.109649658,44.11
2002-08-13 02:07,-68.109626770,44.11
2002-08-13 03:07,-68.109680176,44.11
2002-08-13 04:07,-68.109703064,44.11
2002-08-13 05:07,-68.109596252,44.11
2002-08-13 06:07,-68.109542847,44.11
2002-08-13 07:07,-68.109573364,44.11
2002-08-13 08:07,-68.109596252,44.11
2002-08-13 09:07,-68.109550476,44.11
2002-08-13 10:07,-68.109626770,44.11
2002-08-13 11:07,-68.109626770,44.11
2002-08-13 12:07,-68.109596252,44.11
2002-08-13 13:07,-68.109657288,44.11
2002-08-13 14:07,-68.109542847,44.11
2002-08-13 15:07,-68.109519958,44.11
2002-08-13 16:07,-68.109497070,44.11
2002-08-13 17:07,-68.109542847,44.11
2002-08-13 18:07,-68.109519958,44.11
2002-08-13 19:07,-68.109519958,44.11
2002-08-13 20:07,-68.109573364,44.11
2002-08-13 21:07,-68.109619141,44.11
2002-08-13 22:07,-68.109573364,44.11
2002-08-13 23:07,-68.109550476,44.11
2002-08-14 00:07,-68.109542847,44.11
2002-08-14 01:07,-68.109580994,44.11
2002-08-14 02:07,-68.109596252,44.11
2002-08-14 03:07,-68.109649658,44.11
2002-08-14 04:07,-68.109542847,44.11
2002-08-14 05:07,-68.109596252,44.11
2002-08-14 06:07,-68.109626770,44.11
2002-08-14 07:07,-68.109451294,44.11
2002-08-14 08:07,-68.109481812,44.11
2002-08-14 09:07,-68.109580994,44.11
2002-08-14 10:07,-68.109573364,44.11
2002-08-14 11:07,-68.109573364,44.11
2002-08-14 12:07,-68.109519958,44.11
2002-08-14 13:07,-68.109596252,44.11
2002-08-14 14:07,-68.109542847,44.11
2002-08-14 15:07,-68.109519958,44.11
2002-08-14 16:07,-68.109466553,44.11
2002-08-14 17:07,-68.109497070,44.11
2002-08-14 18:07,-68.109542847,44.11
2002-08-14 19:07,-68.109497070,44.11
2002-08-14 20:07,-68.109573364,44.11
2002-08-14 21:07,-68.109596252,44.11
2002-08-14 22:07,-68.109573364,44.11
2002-08-14 23:07,-68.109542847,44.11
2002-08-15 00:07,-68.109519958,44.11
2002-08-15 01:07,-68.109619141,44.11
2002-08-15 02:07,-68.109649658,44.11
2002-08-15 03:07,-68.109680176,44.11
2002-08-15 04:07,-68.109748840,44.11
2002-08-15 05:07,-68.109580994,44.11
2002-08-15 06:07,-68.109580994,44.11
2002-08-15 07:07,-68.109519958,44.11
2002-08-15 08:07,-68.109497070,44.11
2002-08-15 09:07,-68.109619141,44.11
2002-08-15 10:07,-68.109573364,44.11
2002-08-15 11:07,-68.109542847,44.11
2002-08-15 12:07,-68.109481812,44.11
2002-08-15 13:07,-68.109626770,44.11
2002-08-15 14:07,-68.109580994,44.11
2002-08-15 15:07,-68.109466553,44.11
2002-08-15 16:07,-68.109542847,44.11
2002-08-15 17:07,-68.109550476,44.11
2002-08-15 18:07,-68.109451294,44.11
2002-08-15 19:07,-68.109413147,44.11
2002-08-15 20:07,-68.109336853,44.11
2002-08-15 21:07,-68.109367371,44.11
2002-08-15 22:07,-68.109451294,44.11
2002-08-15 23:07,-68.109466553,44.11
2002-08-16 00:07,-68.109413147,44.11
2002-08-16 01:07,-68.109619141,44.11
2002-08-16 02:07,-68.109703064,44.11
2002-08-16 03:07,-68.109680176,44.11
2002-08-16 04:07,-68.109733582,44.11
2002-08-16 05:07,-68.109626770,44.11
2002-08-16 06:07,-68.109550476,44.11
2002-08-16 07:07,-68.109481812,44.11
2002-08-16 08:07,,
2002-08-16 09:07,-68.109481812,44.11
2002-08-16 10:07,-68.109519958,44.11
2002-08-16 11:07,-68.109626770,44.11
2002-08-16 12:07,-68.109657288,44.11
2002-08-16 13:07,-68.109619141,44.11
2002-08-16 14:07,-68.109649658,44.11
2002-08-16 15:07,-68.109703064,44.11
2002-08-16 16:07,-68.109703064,44.11
2002-08-16 17:07,-68.109626770,44.11
2002-08-16 18:07,-68.109397888,44.11
2002-08-16 19:07,-68.109443665,44.11
2002-08-16 20:07,-68.109413147,44.11
2002-08-16 21:07,-68.109443665,44.11
2002-08-16 22:07,-68.109451294,44.11
2002-08-16 23:07,-68.109481812,44.11
2002-08-17 00:07,-68.109497070,44.11
2002-08-17 01:07,-68.109550476,44.11
2002-08-17 02:07,-68.109550476,44.11
2002-08-17 03:07,-68.109550476,44.11
2002-08-17 04:07,-68.109580994,44.11
2002-08-17 05:07,-68.109580994,44.11
2002-08-17 06:07,,
2002-08-17 07:07,-68.109481812,44.11
2002-08-17 08:07,-68.109382629,44.11
2002-08-17 09:07,-68.109451294,44.11
2002-08-17 10:07,-68.109466553,44.11
2002-08-17 11:07,-68.109481812,44.11
2002-08-17 12:07,-68.109519958,44.11
2002-08-17 13:07,-68.109466553,44.11
2002-08-17 14:07,-68.109481812,44.11
2002-08-17 15:07,-68.109466553,44.11
2002-08-17 16:07,-68.109542847,44.11
2002-08-17 17:07,-68.109497070,44.11
2002-08-17 18:07,-68.109382629,44.11
2002-08-17 19:07,-68.109352112,44.11
2002-08-17 20:07,-68.109367371,44.11
2002-08-17 21:07,-68.109382629,44.11
2002-08-17 22:07,-68.109397888,44.11
2002-08-17 23:07,-68.109367371,44.11
2002-08-18 00:07,-68.109382629,44.11
2002-08-18 01:07,-68.109397888,44.11
2002-08-18 02:07,-68.109443665,44.11
2002-08-18 03:07,-68.109443665,44.11
2002-08-18 04:07,-68.109550476,44.11
2002-08-18 05:07,-68.109443665,44.11
2002-08-18 06:07,-68.109397888,44.11
2002-08-18 07:07,-68.109397888,44.11
2002-08-18 08:07,-68.109413147,44.11
2002-08-18 09:07,-68.109382629,44.11
2002-08-18 10:07,-68.109382629,44.11
2002-08-18 11:07,-68.109382629,44.11
2002-08-18 12:07,-68.109451294,44.11
2002-08-18 13:07,-68.109451294,44.11
2002-08-18 14:07,-68.109481812,44.11
2002-08-18 15:07,-68.109497070,44.11
2002-08-18 16:07,-68.109519958,44.11
2002-08-18 17:07,-68.109542847,44.11
2002-08-18 18:07,-68.109481812,44.11
2002-08-18 19:07,-68.109382629,44.11
2002-08-18 20:07,-68.109336853,44.11
2002-08-18 21:07,-68.109367371,44.11
2002-08-18 22:07,-68.109397888,44.11
2002-08-18 23:07,-68.109443665,44.11
2002-08-19 00:07,-68.109413147,44.11
2002-08-19 01:07,-68.109481812,44.11
2002-08-19 02:07,-68.109481812,44.11
2002-08-19 03:07,-68.109542847,44.11
2002-08-19 04:07,-68.109519958,44.11
2002-08-19 05:07,-68.109550476,44.11
2002-08-19 06:07,,
2002-08-19 07:07,-68.109550476,44.11
2002-08-19 08:07,-68.109481812,44.11
2002-08-19 09:07,-68.109466553,44.11
2002-08-19 10:07,-68.109451294,44.11
2002-08-19 11:07,-68.109481812,44.11
2002-08-19 12:07,-68.109596252,44.11
2002-08-19 13:07,-68.109573364,44.11
2002-08-19 14:07,-68.109619141,44.11
2002-08-19 15:07,-68.109626770,44.11
2002-08-19 16:07,-68.109619141,44.11
2002-08-19 17:07,-68.109649658,44.11
2002-08-19 18:07,-68.109542847,44.11
2002-08-19 19:07,-68.109580994,44.11
2002-08-19 20:07,-68.109619141,44.11
2002-08-19 21:07,-68.109542847,44.11
2002-08-19 22:07,-68.109481812,44.11
2002-08-19 23:07,-68.109443665,44.11
2002-08-20 00:07,-68.109481812,44.11
2002-08-20 01:07,-68.109542847,44.11
2002-08-20 02:07,-68.109519958,44.11
2002-08-20 03:07,-68.109580994,44.11
2002-08-20 04:07,-68.109649658,44.11